User: anonymous   Login
Location: Unspecified
(0.0000°N, 0.0000°E)
Time: 07:40:55
(UTC+00:00)
Language:

COSMOS-2409 - Orbit

View from above orbital plane
View from above orbital plane
View from above satellite
View from above satellite

Ground track
Ground track

The orbit data is extracted from the following two-line orbital elements,

1 28420U 04037B   18116.03444478  .00000030  00000-0  14032-3 0  9997
2 28420  82.4895  30.8240 0013099 320.0784  39.9334 12.45271693617642
Epoch (UTC): 26 April 2018 00:49:36
Eccentricity: 0.0013099
inclination: 82.4895°
perigee height: 1474 km
apogee height: 1494 km
right ascension of ascending node: 30.8240°
argument of perigee: 320.0784°
revolutions per day: 12.45271693
mean anomaly at epoch: 39.9334°
orbit number at epoch: 61764

The dashed part of the orbit path shows where the satellite is in the earth's shadow,  

DLR